AirNav   ProFlight Series 2 Aviation Headset
 
 781 users online  

WY29 Vowers Ranch Airport
Chugwater, Wyoming, USA

GOING TO CHUGWATER?


FAA INFORMATION EFFECTIVE 16 JULY 2020

Location

FAA Identifier: WY29
Lat/Long: 41-37-19.9090N 104-47-06.8820W
41-37.331817N 104-47.114700W
41.6221969,-104.7852450
(estimated)
Elevation: 5550 ft. / 1692 m (estimated)
Variation: 12E (1985)
From city: 8 miles S of CHUGWATER, WY
Time zone: UTC -6 (UTC -7 during Standard Time)
Zip code: 82009

Airport Operations

Airport use: Private use. Permission required prior to landing
Activation date: 06/1991
Control tower: no
ARTCC: DENVER CENTER
FSS: CASPER FLIGHT SERVICE STATION
Attendance: UNATNDD
Wind indicator: yes
Segmented circle: no

Nearby radio navigation aids

VOR radial/distance  VOR name  Freq  Var
CYSr346/24.7CHEYENNE VORTAC113.1013E

 
NDB name  Hdg/Dist  Freq  Var  ID
CAMP GUERNSEY174/37.228011EGYZ --. -.-- --..
TORRINGTON216/38.829311ETOR - --- .-.

Airport Services

Runway Information

Runway 6/24

Dimensions: 4000 x 60 ft. / 1219 x 18 m
Surface: gravel
RUNWAY 6  RUNWAY 24
Traffic pattern: leftleft

Airport Ownership and Management from official FAA records

Ownership: Privately-owned
Owner: VOWERS RANCH INC
2560 RD. 242
CHEYENNE, WY 82009
Phone 307-422-3561
Manager: KARL WILKERSON
2560 RD. 242
CHEYENNE, WY 82009
Phone 307-422-3561

Airport Operational Statistics

Aircraft based on the field: 2
Single engine airplanes: 2
    

Additional Remarks

FOR CD CTC DENVER ARTCC AT 303-651-4257.

Instrument Procedures

There are no published instrument procedures at WY29.

Some nearby airports with instrument procedures:

KEAN - Phifer Airfield (27 nm N)
KCYS - Cheyenne Regional Airport/Jerry Olson Field (28 nm S)
KGUR - Camp Guernsey Airport (38 nm N)
KTOR - Torrington Municipal Airport (39 nm NE)
KLAR - Laramie Regional Airport (44 nm SW)
 
Loc | Ops | Rwys | IFR | FBO | Links
Com | Nav | Svcs | Stats | Notes

AirBoss

 
Area around WY29 (Vowers Ranch Airport)
 
Road maps at: MapQuest Bing Google
 
Aerial photo
No photo
 
Sectional chart

 
Airport distance calculator
Flying to Vowers Ranch Airport? Find the distance to fly.

From to WY29

Sunrise and sunset
Times for 11-Aug-2020
 Local
(UTC-6)
 Zulu
(UTC)
Morning civil twilight05:3511:35
Sunrise06:0612:06
Sunset20:0302:03
Evening civil twilight20:3302:33

Current date and time
Zulu (UTC)  12-Aug-2020 04:00:06
Local (UTC-6)  11-Aug-2020 22:00:06
 
METAR
KEAN 
27nm N 
120335Z AUTO 17006KT 10SM CLR 22/07 A2999 RMK AO2 T02230070
KCYS 
28nm S 
120353Z AUTO 33009KT 10SM CLR 24/M02 A3010 RMK AO2 SLP088 T02441022
KFEW 
30nm S 
120258Z 27008KT 10SM BKN150 20/M03 A3010 RMK AO2A SLP108 T02011030 PWINO PNO $
KGUR 
38nm N 
120258Z AUTO 29006KT 10SM OVC160 26/03 A2996 RMK AO2 PRESRR SLP097 T02640031 53014
KTOR 
39nm NE 
120353Z AUTO 14017G26KT 10SM CLR 26/08 A2995 RMK AO2 PK WND 14026/0352 SLP086 T02560078
TAF
KCYS 
28nm S 
111745Z 1118/1218 29007KT P6SM SCT120 FM120100 26008KT P6SM SCT150
NOTAMs
Click for the latest NOTAMs
NOTAMs are issued by the DoD/FAA and will open in a separate window not controlled by AirNav.

 

 
 

Would you like to see your business listed on this page?

 If your business provides an interesting product or service to pilots, flight crews, aircraft, or users of the Vowers Ranch Airport, you should consider listing it here.  To start the listing process, click on the button below
 
Add a business
 

Other Pages about Vowers Ranch Airport

Update a link
 
Copyright © AirNav, LLC. All rights reserved. Privacy Policy  Contact